Location: ??????
(30.5519°N, 47.7720°E)
Time: 18:06:44
(UTC+00:00)

Cosmos 1703 - Pass Details

Date: 24 January 2021
Orbit: 524 x 538 km, 82.5° (Epoch: 01 March)

Event Time Altitude Azimuth Distance (km) Brightness Sun altitude
Rises 15:05:50 0° 187° (S) 2,649 7.1 -10.5°
Reaches altitude 10° 15:07:58 10° 188° (S) 1,762 6.2 -11.0°
Maximum altitude 15:11:50 83° 274° (W) 534 3.3 -11.8°
Drops below altitude 10° 15:15:43 10° 4° (N) 1,768 5.7 -12.6°
Sets 15:17:52 0° 5° (N) 2,659 6.6 -13.0°
